Total_Precipitation_Accumulation
0.06 0.07 0.08 0.07 0.07 0.12 0.24 0.18 0.07 0.01 0.01 0.12 0.07 0.01 0.00 0.00 0.00 0.00 0.00 0.00 0.00 0.00 0.00 0.00 0.00 0.00 0.00 0.00 0.00 0.00 0.00 0.00 0.00 0.01 0.00 0.00 0.00 0.00 0.01 0.00 0.00 0.00 0.00 0.00
0.09 0.07 0.08 0.08 0.06 0.08 0.18 0.24 0.10 0.14 0.02 0.04 0.01 0.00 0.00 0.00 0.00 0.00 0.00 0.00 0.00 0.00 0.00 0.00 0.00 0.00 0.00 0.00 0.00 0.00 0.00 0.00 0.00 0.00 0.00 0.01 0.00 0.00 0.00 0.00 0.00 0.00 0.00 0.00
0.13 0.10 0.08 0.08 0.08 0.08 0.28 0.25 0.15 0.34 0.13 0.00 0.00 0.00 0.00 0.00 0.00 0.00 0.00 0.00 0.00 0.00 0.00 0.00 0.00 0.00 0.00 0.00 0.00 0.00 0.00 0.00 0.00 0.00 0.00 0.00 0.00 0.00 0.00 0.00 0.00 0.00 0.00 0.00
0.14 0.14 0.12 0.09 0.08 0.12 0.58 0.43 0.08 0.07 0.06 0.01 0.00 0.00 0.00 0.00 0.00 0.00 0.00 0.00 0.00 0.00 0.00 0.00 0.00 0.00 0.00 0.00 0.00 0.00 0.00 0.00 0.00 0.00 0.00 0.00 0.00 0.00 0.00 0.00 0.00 0.00 0.00 0.00
0.14 0.14 0.16 0.15 0.09 0.23 0.83 0.49 0.06 0.02 0.01 0.00 0.00 0.00 0.00 0.00 0.00 0.00 0.00 0.00 0.00 0.00 0.00 0.00 0.00 0.00 0.00 0.00 0.00 0.00 0.00 0.00 0.00 0.00 0.00 0.00 0.00 0.00 0.00 0.00 0.00 0.00 0.00 0.00
0.14 0.12 0.15 0.21 0.21 0.52 0.86 0.30 0.03 0.02 0.02 0.01 0.00 0.00 0.00 0.00 0.00 0.00 0.00 0.00 0.00 0.00 0.00 0.00 0.00 0.00 0.00 0.00 0.00 0.00 0.00 0.00 0.00 0.00 0.00 0.00 0.00 0.00 0.00 0.00 0.00 0.00 0.00 0.00
0.13 0.11 0.15 0.21 0.23 0.47 0.42 0.11 0.05 0.12 0.03 0.02 0.00 0.00 0.00 0.00 0.00 0.00 0.00 0.00 0.00 0.00 0.00 0.01 0.00 0.00 0.00 0.01 0.02 0.01 0.00 0.00 0.00 0.00 0.00 0.00 0.00 0.00 0.00 0.00 0.00 0.00 0.00 0.00
0.11 0.10 0.12 0.19 0.14 0.33 0.31 0.05 0.06 0.24 0.09 0.02 0.01 0.00 0.00 0.00 0.00 0.00 0.00 0.00 0.00 0.00 0.01 0.03 0.05 0.02 0.03 0.04 0.04 0.02 0.00 0.00 0.00 0.00 0.00 0.00 0.00 0.00 0.00 0.00 0.00 0.00 0.00 0.00
0.11 0.10 0.08 0.11 0.10 0.28 0.25 0.13 0.14 0.35 0.27 0.03 0.00 0.00 0.00 0.00 0.00 0.01 0.02 0.02 0.03 0.01 0.01 0.03 0.02 0.02 0.00 0.00 0.00 0.00 0.00 0.00 0.00 0.00 0.00 0.00 0.00 0.00 0.00 0.00 0.00 0.00 0.00 0.00
0.10 0.08 0.04 0.06 0.08 0.26 0.29 0.22 0.24 0.48 0.39 0.11 0.01 0.00 0.00 0.00 0.00 0.03 0.01 0.10 0.10 0.12 0.11 0.07 0.02 0.00 0.00 0.00 0.00 0.00 0.00 0.01 0.00 0.00 0.00 0.00 0.00 0.00 0.00 0.00 0.00 0.00 0.00 0.00
0.09 0.05 0.04 0.05 0.07 0.21 0.29 0.24 0.35 0.45 0.39 0.14 0.11 0.02 0.00 0.01 0.00 0.02 0.00 0.04 0.10 0.16 0.19 0.10 0.02 0.01 0.00 0.00 0.00 0.00 0.00 0.00 0.00 0.00 0.00 0.00 0.00 0.00 0.00 0.00 0.00 0.00 0.00 0.00
0.09 0.06 0.07 0.07 0.07 0.15 0.25 0.24 0.37 0.35 0.45 0.27 0.14 0.03 0.00 0.00 0.00 0.02 0.02 0.01 0.01 0.04 0.07 0.04 0.03 0.00 0.00 0.00 0.00 0.00 0.00 0.00 0.00 0.00 0.00 0.00 0.00 0.00 0.00 0.00 0.00 0.00 0.00 0.00
0.10 0.09 0.10 0.10 0.07 0.11 0.20 0.22 0.41 0.49 0.46 0.29 0.20 0.11 0.01 0.00 0.00 0.02 0.06 0.02 0.02 0.02 0.05 0.09 0.06 0.02 0.00 0.00 0.00 0.00 0.00 0.00 0.00 0.00 0.00 0.00 0.00 0.00 0.00 0.00 0.00 0.00 0.00 0.00
0.12 0.09 0.10 0.12 0.07 0.09 0.16 0.23 0.42 0.64 0.83 0.37 0.32 0.23 0.08 0.04 0.03 0.01 0.10 0.07 0.03 0.06 0.07 0.12 0.05 0.02 0.01 0.00 0.00 0.00 0.00 0.00 0.00 0.00 0.00 0.00 0.00 0.00 0.00 0.00 0.00 0.00 0.00 0.00
0.09 0.07 0.11 0.14 0.07 0.15 0.30 0.28 0.30 0.66 1.00 0.48 0.22 0.20 0.11 0.13 0.11 0.05 0.14 0.27 0.21 0.15 0.12 0.09 0.05 0.02 0.01 0.01 0.00 0.00 0.00 0.00 0.00 0.00 0.00 0.00 0.00 0.00 0.00 0.00 0.00 0.00 0.00 0.00
0.06 0.07 0.13 0.13 0.13 0.29 0.64 0.50 0.33 0.73 0.87 0.77 0.26 0.23 0.14 0.22 0.26 0.18 0.10 0.17 0.40 0.42 0.24 0.12 0.02 0.01 0.01 0.00 0.00 0.00 0.00 0.00 0.00 0.00 0.00 0.00 0.00 0.00 0.00 0.00 0.00 0.00 0.00 0.00
0.08 0.09 0.16 0.20 0.21 0.40 0.72 0.41 0.40 0.51 0.79 0.73 0.36 0.27 0.13 0.15 0.25 0.18 0.13 0.13 0.17 0.25 0.28 0.26 0.15 0.07 0.02 0.00 0.00 0.00 0.00 0.00 0.00 0.00 0.00 0.00 0.00 0.00 0.00 0.00 0.00 0.00 0.00 0.00
0.13 0.15 0.23 0.27 0.36 0.55 0.51 0.56 0.64 0.34 0.38 0.52 0.44 0.23 0.17 0.08 0.12 0.15 0.07 0.11 0.15 0.14 0.15 0.15 0.15 0.18 0.20 0.10 0.00 0.00 0.00 0.00 0.00 0.00 0.00 0.00 0.00 0.00 0.00 0.00 0.00 0.00 0.00 0.00
0.21 0.27 0.45 0.62 0.73 0.74 0.49 0.91 1.02 0.51 0.33 0.32 0.22 0.22 0.24 0.07 0.04 0.07 0.13 0.06 0.10 0.09 0.08 0.07 0.10 0.12 0.14 0.10 0.02 0.00 0.00 0.01 0.00 0.00 0.00 0.00 0.00 0.00 0.00 0.00 0.00 0.00 0.00 0.00
0.34 0.57 0.80 0.78 0.76 0.64 0.62 1.09 1.01 0.63 0.31 0.19 0.11 0.11 0.39 0.15 0.04 0.05 0.12 0.07 0.05 0.07 0.05 0.06 0.04 0.01 0.01 0.00 0.00 0.01 0.00 0.00 0.01 0.01 0.01 0.01 0.00 0.00 0.00 0.00 0.00 0.00 0.00 0.00
0.48 0.64 0.73 0.78 0.93 0.84 0.89 0.94 0.78 0.36 0.12 0.05 0.02 0.03 0.30 0.47 0.16 0.08 0.10 0.11 0.06 0.04 0.03 0.04 0.03 0.01 0.01 0.01 0.01 0.01 0.01 0.01 0.01 0.00 0.00 0.00 0.00 0.00 0.00 0.00 0.00 0.00 0.00 0.00
0.51 0.50 0.49 0.62 0.77 0.72 0.56 0.47 0.47 0.16 0.02 0.01 0.02 0.01 0.10 0.63 0.43 0.19 0.10 0.13 0.07 0.02 0.00 0.01 0.00 0.00 0.01 0.02 0.02 0.01 0.00 0.00 0.00 0.00 0.00 0.01 0.01 0.02 0.02 0.02 0.03 0.02 0.00 0.00
0.59 0.32 0.37 0.47 0.55 0.42 0.22 0.17 0.16 0.05 0.00 0.00 0.00 0.01 0.04 0.35 0.46 0.19 0.09 0.07 0.05 0.01 0.00 0.00 0.00 0.00 0.00 0.01 0.01 0.00 0.00 0.00 0.00 0.01 0.02 0.03 0.04 0.04 0.04 0.04 0.01 0.00 0.00 0.00
0.39 0.28 0.21 0.37 0.21 0.10 0.05 0.03 0.04 0.01 0.00 0.00 0.00 0.01 0.03 0.08 0.09 0.14 0.14 0.10 0.02 0.02 0.01 0.00 0.00 0.01 0.01 0.01 0.00 0.01 0.02 0.03 0.04 0.06 0.06 0.06 0.06 0.06 0.03 0.01 0.00 0.00 0.00 0.00
0.33 0.19 0.16 0.19 0.05 0.05 0.09 0.06 0.03 0.01 0.01 0.00 0.00 0.00 0.00 0.00 0.02 0.02 0.03 0.05 0.04 0.01 0.00 0.01 0.01 0.01 0.00 0.00 0.00 0.01 0.03 0.05 0.06 0.05 0.03 0.02 0.01 0.01 0.01 0.01 0.00 0.00 0.00 0.00
0.22 0.17 0.20 0.09 0.05 0.08 0.06 0.01 0.01 0.01 0.01 0.00 0.00 0.00 0.00 0.00 0.00 0.00 0.00 0.00 0.00 0.00 0.01 0.00 0.00 0.00 0.01 0.00 0.00 0.01 0.01 0.01 0.02 0.02 0.04 0.04 0.03 0.02 0.01 0.00 0.00 0.00 0.00 0.00
0.16 0.21 0.15 0.08 0.07 0.07 0.04 0.01 0.02 0.00 0.00 0.00 0.00 0.00 0.00 0.00 0.00 0.00 0.01 0.01 0.01 0.01 0.00 0.00 0.00 0.01 0.01 0.02 0.03 0.04 0.04 0.06 0.07 0.08 0.05 0.02 0.01 0.00 0.00 0.00 0.00 0.00 0.00 0.00